Погода в Мусирмах

Россия / Чувашская Республика     55°37′16″N   47°58′49″E
темп.,
°C
ветер,
м/с
пор.,
м/с
влажн.,
%
обл.,
%
осадки,
мм/ч
давл.,
гПа
погр.,
м
1 августа, вс
вс100:00+18юз4127248 0.0 1008231
03:00+17зюз497438 0.0 1009147
06:00+18з36745 0.0 1010161
09:00+24зсз455178 0.0 1011695
12:00+26з5640100 0.0 10111887
15:00+27з5638100 0.0 10122003
18:00+24ссз235750 0.0 101279
21:00+19ю01687 0.0 101311
2 августа, пн
пн200:00+18ююз227285 0.0 101317
03:00+17юз226855 0.0 101314
06:00+19ююз2567100 0.0 1014142
09:00+26ююз355095 0.0 1014488
12:00+31юз57375 0.0 10121736
15:00+32зюз6734100 0.0 10112729
18:00+28зюз355014 0.0 101190
21:00+23ю34570 0.0 101143
3 августа, вт
вт300:00+22ю475144 0.0 101096
03:00+23ююв5134775 0.0 1009262
06:00+23ю5145675 0.0 1009293
09:00+29ююз683910 0.0 1008533
12:00+32юз463462 0.0 10081017
15:00+32зюз6103595 0.1 10062222
18:00+27з345785 0.3 100784
21:00+22юз2267100 0.4 100934
4 августа, ср
ср400:00+20зюз2277100 0.3 100920
03:00+19ююв1194100 1.3 100920
06:00+19юз359195 0.0 1010366
09:00+22з4575100 0.0 1010676
12:00+24з4459100 0.3 10101367
15:00+24зсз5655100 0.5 10111347
18:00+24сз3655100 0.0 1012579
21:00+20сз366291 0.0 1013140
5 августа, чт
чт500:00+19сз3668100 0.0 1014131
03:00+19ссз4763100 0.0 1014210
06:00+18ссз4764100 0.0 1015258
09:00+20с4659100 0.0 1016473
12:00+24ссз553764 0.0 10161787
15:00+24ссз66355 0.0 10162230
18:00+21ссз58430 0.0 1016491
21:00+15ссв375949 0.0 1017116